Weather History for Defiance, OH

Change the Weather History Date:

Wednesday, January 1, 2014

  Actual Average Record
Temperature  
Mean Temperature 16 °F -  
Max Temperature 19 °F 33 °F 60 °F (1966)
Min Temperature 14 °F 18 °F -9 °F (1964)
Degree Days  
Heating Degree Days 48    
Moisture  
Dew Point 12 °F    
Average Humidity 81    
Maximum Humidity 86    
Minimum Humidity 73    
Precipitation  
Precipitation 0.11 in - - ()
Sea Level Pressure  
Sea Level Pressure 30.28 in    
Wind  
Wind Speed 5 mph (ENE)    
Max Wind Speed 12 mph    
Max Gust Speed 20 mph    
Visibility 3 miles    
Events Snow    
Averages and records for this station are not official NWS values.
T = Trace of Precipitation, MM = Missing Value Source: NWS Daily Summary

Daily Weather History Graph

Daily Weather History Graph

Search for Another Location

Airport:

Trip Planner

Search our weather history database for the weather conditions in past years. The results will help you decide how hot, cold, wet, or windy it might be!

Date:

Astronomy

Jan. 01, 2014 Rise Set
Actual Time 8:03 AM EST 5:19 PM EST
Civil Twilight 7:32 AM EST 5:50 PM EST
Nautical Twilight 6:57 AM EST 6:25 PM EST
Astronomical Twilight 6:24 AM EST 6:58 PM EST
Moon 7:52 AM EST (1/1) 6:04 PM EST (1/1)
Length of Visible Light 10h 17m
Length of Day
9h 15m
New Moon, 0% of the Moon is Illuminated
Jan 1
New Moon
Jan 7
First Quarter
Jan 15
Full
Jan 24
Last Quarter
Jan 30
New

Hourly Weather History & Observations

Time (EST) Temp. Windchill Dew Point Humidity Pressure Visibility Wind Dir Wind Speed Gust Speed Precip Events Conditions
12:05 AM 17.6 °F 12.3 °F 12.2 °F 79% 30.32 in 1.5 mi North 3.5 mph - 0.00 in Snow Light Snow
12:53 AM 18.0 °F - 14.0 °F 84% 30.35 in 1.5 mi Calm Calm - 0.01 in Snow Light Snow
1:03 AM 17.6 °F - 12.2 °F 79% 30.30 in 2.0 mi Calm Calm - 0.00 in Snow Light Snow
1:13 AM 17.6 °F - 14.0 °F 86% 30.30 in 2.5 mi Calm Calm - 0.00 in Snow Light Snow
1:51 AM 17.6 °F 12.3 °F 14.0 °F 86% 30.29 in 2.0 mi East 3.5 mph - 0.00 in Snow Light Snow
1:53 AM 18.0 °F 12.7 °F 14.0 °F 84% 30.33 in 2.5 mi East 3.5 mph - 0.00 in Snow Light Snow
2:07 AM 17.6 °F 10.7 °F 12.2 °F 79% 30.29 in 3.0 mi East 4.6 mph - 0.00 in Snow Light Snow
2:53 AM 18.0 °F 12.7 °F 12.9 °F 81% 30.34 in 2.5 mi ESE 3.5 mph - 0.00 in Snow Light Snow
3:16 AM 17.6 °F 10.7 °F 12.2 °F 79% 30.30 in 3.0 mi ESE 4.6 mph - 0.00 in Snow Light Snow
3:24 AM 17.6 °F 12.3 °F 14.0 °F 86% 30.30 in 2.0 mi East 3.5 mph - 0.00 in Snow Light Snow
3:53 AM 18.0 °F 11.1 °F 12.9 °F 81% 30.34 in 2.0 mi East 4.6 mph - 0.00 in Snow Light Snow
4:10 AM 17.6 °F 12.3 °F 14.0 °F 86% 30.29 in 1.8 mi East 3.5 mph - 0.01 in Snow Light Snow
4:21 AM 17.6 °F 12.3 °F 14.0 °F 86% 30.29 in 2.0 mi East 3.5 mph - 0.01 in Snow Light Snow
4:29 AM 17.6 °F 12.3 °F 14.0 °F 86% 30.29 in 1.8 mi East 3.5 mph - 0.01 in Snow Light Snow
4:44 AM 17.6 °F 10.7 °F 14.0 °F 86% 30.29 in 2.0 mi East 4.6 mph - 0.01 in Snow Light Snow
4:51 AM 17.6 °F 10.7 °F 14.0 °F 86% 30.29 in 2.0 mi ENE 4.6 mph - 0.01 in Snow Light Snow
4:53 AM 18.0 °F 11.1 °F 14.0 °F 84% 30.32 in 2.0 mi East 4.6 mph - 0.01 in Snow Light Snow
5:23 AM 17.6 °F 10.7 °F 14.0 °F 86% 30.28 in 2.5 mi ENE 4.6 mph - 0.00 in Snow Light Snow
5:34 AM 17.6 °F 12.3 °F 14.0 °F 86% 30.29 in 3.0 mi East 3.5 mph - 0.00 in Snow Light Snow
5:41 AM 17.6 °F 12.3 °F 14.0 °F 86% 30.28 in 2.0 mi ENE 3.5 mph - 0.00 in Snow Light Snow
5:45 AM 17.6 °F 10.7 °F 14.0 °F 86% 30.28 in 1.5 mi East 4.6 mph - 0.00 in Snow Light Snow
5:53 AM 18.0 °F 11.1 °F 14.0 °F 84% 30.32 in 1.2 mi ENE 4.6 mph - 0.00 in Snow Light Snow
6:53 AM 18.0 °F 12.7 °F 14.0 °F 84% 30.33 in 1.5 mi ENE 3.5 mph - 0.02 in Snow Light Snow
7:53 AM 18.0 °F 11.1 °F 14.0 °F 84% 30.33 in 1.0 mi NE 4.6 mph - 0.01 in Snow Light Snow
8:18 AM 17.6 °F 10.7 °F 14.0 °F 86% 30.28 in 0.8 mi ENE 4.6 mph - 0.01 in Snow Light Snow
8:53 AM 18.0 °F 8.7 °F 14.0 °F 84% 30.34 in 0.8 mi NE 6.9 mph - 0.02 in Snow Light Snow
9:08 AM 17.6 °F 7.3 °F 14.0 °F 86% 30.30 in 1.2 mi ENE 8.1 mph - 0.00 in Snow Light Snow
9:22 AM 17.6 °F 8.2 °F 12.2 °F 79% 30.30 in 2.0 mi NE 6.9 mph - 0.00 in Snow Light Snow
9:32 AM 17.6 °F 7.3 °F 12.2 °F 79% 30.30 in 2.5 mi NE 8.1 mph - 0.00 in Snow Light Snow
9:48 AM 17.6 °F 7.3 °F 12.2 °F 79% 30.30 in 1.8 mi NE 8.1 mph - 0.00 in Snow Light Snow
9:53 AM 18.0 °F 8.7 °F 14.0 °F 84% 30.34 in 1.2 mi NE 6.9 mph - 0.00 in Snow Light Snow
10:13 AM 17.6 °F 7.3 °F 12.2 °F 79% 30.30 in 1.2 mi NE 8.1 mph - 0.00 in Snow Light Snow
10:30 AM 19.4 °F 9.5 °F 12.2 °F 74% 30.31 in 2.5 mi ENE 8.1 mph - 0.00 in Snow Light Snow
10:38 AM 19.4 °F 9.5 °F 14.0 °F 80% 30.30 in 4.0 mi NE 8.1 mph - 0.00 in Snow Light Snow
10:51 AM 19.4 °F 9.5 °F 12.2 °F 74% 30.30 in 7.0 mi NE 8.1 mph - 0.00 in   Overcast
10:53 AM 19.0 °F 10.0 °F 12.9 °F 77% 30.34 in 8.0 mi NE 6.9 mph - 0.00 in   Overcast
11:23 AM 19.4 °F 8.6 °F 12.2 °F 74% 30.29 in 9.0 mi NE 9.2 mph 17.3 mph N/A   Mostly Cloudy
11:53 AM 19.0 °F 8.2 °F 12.9 °F 77% 30.32 in 10.0 mi NE 9.2 mph 17.3 mph N/A   Overcast
12:53 PM 19.0 °F 7.5 °F 12.9 °F 77% 30.29 in 10.0 mi NE 10.4 mph 19.6 mph N/A   Overcast
1:53 PM 18.0 °F 5.4 °F 12.0 °F 78% 30.27 in 6.0 mi NE 11.5 mph - N/A   Haze
2:53 PM 18.0 °F 6.1 °F 12.0 °F 78% 30.27 in 10.0 mi NE 10.4 mph - N/A   Overcast
3:53 PM 17.1 °F 5.8 °F 10.9 °F 77% 30.26 in 6.0 mi NE 9.2 mph - N/A   Haze
4:19 PM 17.6 °F 5.7 °F 10.4 °F 73% 30.22 in 2.0 mi NE 10.4 mph - 0.00 in Snow Light Snow
4:27 PM 17.6 °F 6.4 °F 10.4 °F 73% 30.22 in 1.5 mi NE 9.2 mph - 0.00 in Snow Light Snow
4:45 PM 15.8 °F 3.4 °F 10.4 °F 79% 30.22 in 0.8 mi NE 10.4 mph - 0.00 in Snow Light Snow
4:53 PM 16.0 °F 4.4 °F 10.9 °F 81% 30.26 in 0.8 mi NE 9.2 mph 17.3 mph 0.00 in Snow Light Snow
5:13 PM 15.8 °F 3.4 °F 10.4 °F 79% 30.21 in 0.8 mi NE 10.4 mph - 0.00 in Snow Light Snow
5:31 PM 15.8 °F 2.7 °F 10.4 °F 79% 30.22 in 1.2 mi NE 11.5 mph - 0.01 in Snow Light Snow
5:53 PM 15.1 °F 2.5 °F 10.0 °F 80% 30.26 in 2.0 mi NE 10.4 mph - 0.01 in Snow Light Snow
6:08 PM 15.8 °F 3.4 °F 10.4 °F 79% 30.22 in 1.5 mi NE 10.4 mph - 0.00 in Snow Light Snow
6:53 PM 14.0 °F 0.5 °F 9.0 °F 80% 30.25 in 1.2 mi NE 11.5 mph - 0.01 in Snow Light Snow
7:53 PM 15.1 °F 1.8 °F 10.0 °F 80% 30.25 in 1.0 mi NNE 11.5 mph - 0.00 in Snow Light Snow
8:31 PM 15.8 °F 2.7 °F 10.4 °F 79% 30.19 in 1.0 mi NE 11.5 mph 17.3 mph 0.01 in Snow Light Snow
8:53 PM 15.1 °F 4.2 °F 10.0 °F 80% 30.23 in 1.0 mi NE 8.1 mph - 0.01 in Snow Light Snow
9:11 PM 15.8 °F 4.2 °F 10.4 °F 79% 30.18 in 1.2 mi NE 9.2 mph - 0.00 in Snow Light Snow
9:53 PM 15.1 °F 3.3 °F 10.9 °F 84% 30.21 in 1.5 mi NE 9.2 mph - 0.01 in Snow Light Snow
10:53 PM 16.0 °F 3.6 °F 10.9 °F 81% 30.19 in 1.0 mi NE 10.4 mph - 0.00 in Snow Light Snow
11:09 PM 15.8 °F 3.4 °F 10.4 °F 79% 30.14 in 1.0 mi NE 10.4 mph - 0.00 in Snow Light Snow
11:18 PM 15.8 °F 3.4 °F 10.4 °F 79% 30.14 in 1.5 mi NE 10.4 mph - 0.00 in Snow Light Snow
11:53 PM 16.0 °F 4.4 °F 10.9 °F 81% 30.17 in 1.8 mi NE 9.2 mph - 0.00 in Snow Light Snow